Welcome to the New NWS' Forecast!
Most changes are behind the scenes, but click here for differences you might notice.

Regional Weather Roundup (RWR)

Issued by Gray - Portland, ME (GYX)

                            
497 
ASUS41 KGYX 210805
RWRGYX
WEATHER ROUNDUP FOR MAINE AND NEW HAMPSHIRE
NATIONAL WEATHER SERVICE GRAY ME
300 AM EST SUN JAN 21 2018

MEZ002-005-006-010-012-015-018-020-021-024-026-027-029-210900-
MAINE
  
CITY           SKY/WX    TMP DP  RH WIND       PRES   REMARKS
PORTLAND       FAIR      36  27  69 W8        29.93R                  
SANFORD        FAIR      37  28  70 W7        29.94R                  
BAR HARBOR     CLOUDY    36  27  69 CALM      29.89R                  
WISCASSET      FAIR      29  27  92 W3        29.92S                  
ROCKLAND       FAIR      31  26  82 CALM      29.89R                  
FRYEBURG       FAIR      41  29  62 W12G18    29.91R                  
LEWISTONAUBURN MOCLDY    29  25  85 CALM      29.92R                  
AUGUSTA        CLOUDY    40  27  59 SW3       29.89R                  
WATERVILLE     CLOUDY    38  29  70 W5        29.85R                  
BANGOR         CLOUDY    38  24  57 NW6       29.88R                  
GREENVILLE       N/A     26  17  68 NW9G23    29.81R                  
MILLINOCKET    MOCLDY    27  16  63 NW10G18   29.89R WCI  17          
HOULTON        FAIR      25  14  63 W7        29.84R                  
PRESQUE ISLE   FAIR      20  11  68 NW7       29.87R                  
FRENCHVILLE    FAIR      11   4  73 NW7       29.82R                  
CARIBOU        FAIR      16   7  67 N6        29.85R                  
$$

NHZ002-005-008-009-011-012-014-210900-
NEW HAMPSHIRE
  
CITY           SKY/WX    TMP DP  RH WIND       PRES   REMARKS
PORTSMOUTH     MOCLDY    30  25  81 SW7       29.96R                  
ROCHESTER      FAIR      36  28  73 VRB7      29.94R                  
NASHUA         FAIR      24  24 100 CALM      30.00R                  
MANCHESTER     FAIR      28  24  85 CALM      29.97R                  
CONCORD        FAIR      25  22  88 SE3       29.98R                  
LACONIA        FAIR      30  27  88 SW8       29.96R                  
PLYMOUTH       MOCLDY    37  29  73 W8        29.95R                  
BERLIN         CLOUDY    38  29  70 NW7G18    29.91R                  
WHITEFIELD     CLOUDY    38  29  70 VRB5      29.94R                  
JAFFREY        FAIR      36  29  75 VRB7      29.98R                  
KEENE          FOG       20  19  96 CALM      30.02S VSB 3/4          
LEBANON        FAIR      25  23  92 CALM      29.97R                  
MT WASHINGTON  FOG       16  16 100 NW54G67     N/A  VSB 0   WCI  -9  
$$

VTZ005-007-008-210900-
VERMONT
  
CITY           SKY/WX    TMP DP  RH WIND       PRES   REMARKS
ST JOHNSBURY     N/A     38  31  76 MISG      29.95R                  
MONTPELIER     CLOUDY    37  30  75 W9G18     29.99R                  
BURLINGTON     CLOUDY    38  30  73 NE3       30.00R                  
$$

MAZ007-012-024-CTZ003-RIZ002-NYZ038-NYZ072-210900-
SOUTHERN NEW ENGLAND AND NY
  
CITY           SKY/WX    TMP DP  RH WIND       PRES   REMARKS
BOSTON         MOCLDY    40  29  64 W8        30.00R                  
WORCESTER      FAIR      35  25  66 W10       29.98R                  
NANTUCKET      FAIR      37  33  85 W12       30.02R                  
PROVIDENCE     FAIR      30  27  88 S7        30.02R                  
HARTFORD       MOCLDY    28  25  88 VRB3      30.05R                  
ALBANY         CLOUDY    38  27  64 W13       30.08R                  
NEW YORK CITY  FAIR      43  28  55 W5        30.07R                  
$$

ANZ081-ANZ082-ANZ150-NHZ014-MEZ023>029-210900-
COASTAL MARINE OBSERVATIONS
  
STATION/POSITION TIME  TEMP    WIND        PRES    WAVE
                       AIR SEA DIR/SP/G            HT/PER
                 (UTC) (F)     (DEG/KT/KT) (MB)    (FT/S)
MOUNT DESERT ROC 0800   41     260/ 17/ 19 1012.4R
MATINICUS ROCK   0700   41     260/ 21/ 23 1011.4R
ISLE OF SHOALS   0700   38     260/ 11/ 11 1013.9R
JEFFREYS LEDGE   0736      43                N/A     3/ 4
GEORGES BANK BUO 0650   49 59              1010.2   12/11
$$

.............KEY..............
   WCI - WIND CHILL
   TC  - TEMPERATURE IN CELSIUS
   VSB - VISIBILITY IN MILES
   HX  - HEAT INDEX
   FAIR- INDICATES FEW OR NO CLOUDS BELOW 12,000 FT, WITH NO 
         SIGNIFICANT WEATHER AND/OR OBSTRUCTIONS TO VISIBILITY.